Location: Hopkins Observatory
(42.6965°N, 73.1843°W)
Time: 21:27:00
(UTC-04:00)

Amateur Radio Satellites - All Passes

Search period start: 24 October 2014 20:57
Search period end: 25 October 2014 20:57
Location: Hopkins Observatory, 42.6965°N, 73.1843°W

Satellite Date Start Highest point End Downlink Frequencies (MHz)
Time Altitude Azimuth
SO-50 24 Oct 20:59:34 21:03:55 32° 46° (NE) 21:08:18 436.795 FM
AO-40 24 Oct 21:28:48 23:17:17 24° 220° (SW) 02:41:54 Beacon 2401.320
ZACube-1 24 Oct 21:39:51 21:43:56 33° 69° (ENE) 21:47:58 437.345 MHz
RS-15 24 Oct 21:39:54 21:49:57 43° 109° (ESE) 21:59:54 29.354 - 29.394 USB, Beacon 29.352 USB
UKube-1 24 Oct 21:45:00 21:49:21 85° 256° (WSW) 21:53:45 145.840 MHz, 145.915 MHz
HO-68 24 Oct 22:02:31 22:08:53 34° 264° (W) 22:15:19 435.675 MHz FM
FUNcube-1 24 Oct 22:24:01 22:28:37 88° 257° (WSW) 22:33:10 145.950 - 145.970 MHz USB
UOSAT-12 24 Oct 22:24:22 22:28:11 23° 42° (NE) 22:31:57 437.025 FM, 437.400 FM
Oscar 11 24 Oct 22:27:16 22:31:12 34° 263° (W) 22:35:09 145.825 FM, Beacon 2401.500 USB
KITSAT 1 24 Oct 22:28:58 22:36:34 47° 248° (WSW) 22:44:09 435.175 FM
SO-50 24 Oct 22:40:04 22:44:31 37° 244° (WSW) 22:49:00 436.795 FM
ZACube-1 24 Oct 23:16:31 23:20:20 26° 265° (W) 23:24:07 437.345 MHz
MaSat-1 24 Oct 23:17:52 23:21:21 26° 110° (ESE) 23:24:35 437.345 MHz
RS-15 24 Oct 23:51:09 00:01:55 59° 312° (NW) 00:12:45 29.354 - 29.394 USB, Beacon 29.352 USB
UOSAT-12 25 Oct 00:04:02 00:08:39 54° 241° (WSW) 00:13:09 437.025 FM, 437.400 FM
MaSat-1 25 Oct 00:53:28 00:56:56 27° 303° (WNW) 01:00:07 437.345 MHz
Oscar 19 25 Oct 01:16:33 01:19:30 15° 90° (E) 01:22:26 437.125 CW, 437.150 USB
JAS-1B 25 Oct 01:51:56 01:58:05 36° 98° (E) 02:05:15 435.800 - 435.900 CW/SSB
AO-Echo 25 Oct 01:56:15 02:00:12 21° 92° (E) 02:04:08 ?
Oscar 16 25 Oct 02:00:54 02:05:45 41° 98° (E) 02:10:33 437.025 USB, Beacon 2401.1428
RS-15 25 Oct 02:08:39 02:17:16 26° 343° (NNW) 02:26:02 29.354 - 29.394 USB, Beacon 29.352 USB
Uribyol 2 25 Oct 02:20:56 02:25:20 27° 95° (E) 02:29:42 436.500 FM
ITAMSAT 1 25 Oct 02:26:54 02:31:26 29° 95° (E) 02:35:54 435.822 SSB
Gurwin Techsat 1B 25 Oct 02:47:23 02:51:41 25° 94° (E) 02:55:57 435.225 FM
Oscar 19 25 Oct 02:54:14 02:59:18 66° 287° (WNW) 03:04:22 437.125 CW, 437.150 USB
TMSAT-1 25 Oct 02:58:39 03:02:49 23° 93° (E) 03:06:58 436.925 FM
AO-27 25 Oct 03:12:05 03:17:21 77° 103° (ESE) 03:22:34 436.795 MHz FM
AO-7 25 Oct 03:28:04 03:31:41 13° 87° (E) 03:35:17 29.400 - 29.500 MHz
AO-Echo 25 Oct 03:34:04 03:39:14 53° 289° (WNW) 03:44:23 ?
Oscar 16 25 Oct 03:40:43 03:44:53 26° 295° (WNW) 03:49:02 437.025 USB, Beacon 2401.1428
JAS-1B 25 Oct 03:42:33 03:48:45 45° 292° (WNW) 03:56:01 435.800 - 435.900 CW/SSB
Sapphire 25 Oct 03:43:28 03:48:35 46° 113° (ESE) 03:53:45 437.095 MHz 1200 baud AX-25 AFSK
Uribyol 2 25 Oct 04:00:05 04:04:54 39° 292° (WNW) 04:09:40 436.500 FM
PCSat 25 Oct 04:05:40 04:11:03 76° 118° (ESE) 04:16:29 145.825 MHz
ITAMSAT 1 25 Oct 04:06:11 04:10:57 37° 292° (WNW) 04:15:41 435.822 SSB
RS-15 25 Oct 04:25:47 04:34:39 26° 19° (NNE) 04:43:43 29.354 - 29.394 USB, Beacon 29.352 USB
Gurwin Techsat 1B 25 Oct 04:26:47 04:31:49 44° 291° (WNW) 04:36:49 435.225 FM
OPAL 25 Oct 04:29:07 04:33:53 40° 67° (ENE) 04:38:37 ?
TMSAT-1 25 Oct 04:37:53 04:42:57 47° 290° (WNW) 04:47:59 436.925 FM
AO-27 25 Oct 04:53:14 04:56:13 16° 301° (WNW) 04:59:11 436.795 MHz FM
JAS-2 25 Oct 05:10:19 05:16:27 25° 90° (E) 05:22:32 435.800 - 435.900 CW/SSB, 435.910 FM
AO-7 25 Oct 05:17:30 05:25:51 72° 106° (ESE) 05:34:10 29.400 - 29.500 MHz
Uosat F 25 Oct 05:19:02 05:24:05 68° 102° (ESE) 05:29:06 435.120 FM
Sapphire 25 Oct 05:27:29 05:32:11 30° 312° (NW) 05:36:56 437.095 MHz 1200 baud AX-25 AFSK
PCSat 25 Oct 05:51:06 05:55:05 20° 318° (NW) 05:59:04 145.825 MHz
OPAL 25 Oct 06:08:34 06:12:51 26° 263° (W) 06:17:07 ?
STRAND 1 25 Oct 06:13:52 06:18:38 40° 69° (ENE) 06:23:26 ?
Hamsat 25 Oct 06:21:35 06:25:36 43° 98° (E) 06:29:37 145.90 MHz
RS-15 25 Oct 06:38:51 06:49:53 62° 49° (NE) 07:01:20 29.354 - 29.394 USB, Beacon 29.352 USB
JAS-2 25 Oct 06:54:15 07:02:01 74° 287° (WNW) 07:09:47 435.800 - 435.900 CW/SSB, 435.910 FM
Uosat F 25 Oct 06:59:14 07:02:19 16° 300° (WNW) 07:05:23 435.120 FM
AO-7 25 Oct 07:11:12 07:17:57 29° 305° (NW) 07:24:43 29.400 - 29.500 MHz
Saudisat 1A 25 Oct 07:13:36 07:17:34 34° 116° (ESE) 07:21:34 436.775 MHz
SO-67 25 Oct 07:24:24 07:27:20 25° 96° (E) 07:30:15 435.3500 MHz FM
STRAND 1 25 Oct 07:53:43 07:57:56 26° 266° (W) 08:02:12 ?
Hamsat 25 Oct 07:58:28 08:01:14 17° 295° (WNW) 08:04:00 145.90 MHz
JAS-2 25 Oct 08:41:07 08:45:48 18° 306° (NW) 08:50:33 435.800 - 435.900 CW/SSB, 435.910 FM
RS-15 25 Oct 08:51:41 09:01:51 42° 251° (WSW) 09:12:27 29.354 - 29.394 USB, Beacon 29.352 USB
Saudisat 1A 25 Oct 08:53:19 08:57:10 29° 314° (NW) 09:01:02 436.775 MHz
SO-67 25 Oct 08:57:42 09:00:09 18° 292° (WNW) 09:02:35 435.3500 MHz FM
MaSat-1 25 Oct 09:02:44 09:05:18 44° 60° (ENE) 09:07:39 437.345 MHz
HO-68 25 Oct 09:28:20 09:35:13 46° 99° (E) 09:42:03 435.675 MHz FM
UKube-1 25 Oct 09:33:45 09:36:21 15° 92° (E) 09:38:56 145.840 MHz, 145.915 MHz
Oscar 11 25 Oct 10:13:44 10:17:48 39° 98° (E) 10:21:49 145.825 FM, Beacon 2401.500 USB
FUNcube-1 25 Oct 10:13:48 10:16:28 16° 91° (E) 10:19:05 145.950 - 145.970 MHz USB
Sapphire 25 Oct 10:49:59 10:50:49 10° 31° (NNE) 10:51:40 437.095 MHz 1200 baud AX-25 AFSK
ZACube-1 25 Oct 11:04:15 11:08:29 59° 100° (E) 11:12:35 437.345 MHz
KITSAT 1 25 Oct 11:04:16 11:10:26 25° 104° (ESE) 11:16:36 435.175 FM
UKube-1 25 Oct 11:08:35 11:12:49 50° 288° (WNW) 11:17:02 145.840 MHz, 145.915 MHz
PCSat 25 Oct 11:10:55 11:13:55 15° 37° (NE) 11:16:54 145.825 MHz
HO-68 25 Oct 11:16:18 11:22:46 37° 298° (WNW) 11:29:12 435.675 MHz FM
FUNcube-1 25 Oct 11:49:03 11:53:06 43° 288° (WNW) 11:57:03 145.950 - 145.970 MHz USB
Oscar 11 25 Oct 11:50:35 11:53:43 20° 294° (WNW) 11:56:50 145.825 FM, Beacon 2401.500 USB
ISS 25 Oct 12:22:54 12:25:55 32° 138° (SE) 12:28:56 145.800 FM
Sapphire 25 Oct 12:30:31 12:35:44 44° 53° (NE) 12:40:54 437.095 MHz 1200 baud AX-25 AFSK
Oscar 19 25 Oct 12:33:48 12:37:57 25° 65° (ENE) 12:42:07 437.125 CW, 437.150 USB
JAS-1B 25 Oct 12:40:27 12:45:16 27° 64° (ENE) 12:49:57 435.800 - 435.900 CW/SSB
ZACube-1 25 Oct 12:42:17 12:44:21 13° 298° (WNW) 12:46:24 437.345 MHz
Oscar 10/S400 25 Oct 12:46:43 13:03:49 28° 150° (SSE) 13:20:37 145.825 - 145.975 CW/USB, Beacon 145.810 USB
PCSat 25 Oct 12:52:54 12:58:21 71° 58° (ENE) 13:03:44 145.825 MHz
AO-27 25 Oct 12:53:57 12:57:18 18° 60° (ENE) 13:00:40 436.795 MHz FM
SO-50 25 Oct 12:55:11 12:59:36 62° 120° (ESE) 13:04:10 436.795 FM
KITSAT 1 25 Oct 12:56:57 13:05:02 75° 304° (WNW) 13:13:09 435.175 FM
AO-Echo 25 Oct 13:09:58 13:14:05 27° 65° (ENE) 13:18:20 ?
Oscar 16 25 Oct 13:18:30 13:23:36 65° 73° (ENE) 13:28:43 437.025 USB, Beacon 2401.1428
Uribyol 2 25 Oct 13:39:21 13:44:17 44° 69° (ENE) 13:49:15 436.500 FM
ITAMSAT 1 25 Oct 13:45:29 13:50:28 47° 70° (ENE) 13:55:29 435.822 SSB
ISS 25 Oct 13:59:25 14:02:34 38° 335° (NNW) 14:05:43 145.800 FM
Gurwin Techsat 1B 25 Oct 14:09:02 14:13:59 41° 69° (ENE) 14:18:57 435.225 FM
Oscar 19 25 Oct 14:12:12 14:17:04 42° 262° (W) 14:21:57 437.125 CW, 437.150 USB
Sapphire 25 Oct 14:14:21 14:18:56 28° 251° (WSW) 14:23:28 437.095 MHz 1200 baud AX-25 AFSK
UOSAT-12 25 Oct 14:15:46 14:20:02 38° 116° (ESE) 14:24:24 437.025 FM, 437.400 FM
TMSAT-1 25 Oct 14:19:57 14:24:49 39° 68° (ENE) 14:29:43 436.925 FM
AO-7 25 Oct 14:27:16 14:33:31 25° 52° (NE) 14:39:46 29.400 - 29.500 MHz
JAS-1B 25 Oct 14:30:15 14:35:49 41° 261° (W) 14:41:10 435.800 - 435.900 CW/SSB
AO-27 25 Oct 14:31:05 14:36:15 67° 258° (WSW) 14:41:29 436.795 MHz FM
SO-50 25 Oct 14:37:08 14:40:34 21° 320° (NW) 14:44:05 436.795 FM
PCSat 25 Oct 14:37:48 14:41:08 17° 256° (WSW) 14:44:28 145.825 MHz
AO-Echo 25 Oct 14:48:12 14:52:42 36° 263° (W) 14:57:22 ?
KITSAT 1 25 Oct 14:55:40 15:01:52 23° 327° (NNW) 15:08:06 435.175 FM
Uosat F 25 Oct 14:57:27 14:59:56 14° 59° (ENE) 15:02:25 435.120 FM
Oscar 16 25 Oct 15:00:20 15:03:24 16° 270° (W) 15:06:28 437.025 USB, Beacon 2401.1428
Uribyol 2 25 Oct 15:19:47 15:23:56 24° 266° (W) 15:28:07 436.500 FM
ITAMSAT 1 25 Oct 15:26:11 15:30:11 22° 267° (W) 15:34:13 435.822 SSB
JAS-2 25 Oct 15:28:33 15:29:33 10° 47° (NE) 15:30:33 435.800 - 435.900 CW/SSB, 435.910 FM
ISS 25 Oct 15:37:33 15:39:55 18° 355° (N) 15:42:18 145.800 FM
Saudisat 1A 25 Oct 15:39:14 15:43:21 37° 49° (NE) 15:47:27 436.775 MHz
Gurwin Techsat 1B 25 Oct 15:49:41 15:54:05 26° 266° (W) 15:58:30 435.225 FM
UOSAT-12 25 Oct 15:56:09 16:00:16 30° 315° (NW) 16:04:26 437.025 FM, 437.400 FM
TMSAT-1 25 Oct 16:00:19 16:04:48 28° 265° (W) 16:09:20 436.925 FM
AO-7 25 Oct 16:17:06 16:25:23 84° 252° (WSW) 16:33:44 29.400 - 29.500 MHz
Uosat F 25 Oct 16:33:00 16:38:01 82° 256° (WSW) 16:43:06 435.120 FM
KITSAT 1 25 Oct 16:57:40 17:00:57 13° 358° (N) 17:04:13 435.175 FM
JAS-2 25 Oct 17:07:03 17:12:53 55° 69° (ENE) 17:19:31 435.800 - 435.900 CW/SSB, 435.910 FM
ISS 25 Oct 17:14:43 17:17:28 23° 15° (NNE) 17:20:12 145.800 FM
Hamsat 25 Oct 17:15:40 17:19:28 34° 70° (ENE) 17:23:15 145.90 MHz
Saudisat 1A 25 Oct 17:19:05 17:22:46 26° 246° (WSW) 17:26:27 436.775 MHz
SO-67 25 Oct 17:59:52 18:00:42 11° 65° (ENE) 18:01:32 435.3500 MHz FM
AO-7 25 Oct 18:14:26 18:19:19 17° 271° (W) 18:24:14 29.400 - 29.500 MHz
OPAL 25 Oct 18:16:36 18:21:35 75° 105° (ESE) 18:26:31 ?
STRAND 1 25 Oct 18:25:39 18:27:45 12° 89° (E) 18:29:50 ?
ISS 25 Oct 18:51:09 18:54:30 89° 26° (NNE) 18:57:51 145.800 FM
Hamsat 25 Oct 18:52:19 18:55:29 21° 267° (W) 18:58:40 145.90 MHz
JAS-2 25 Oct 18:53:37 18:58:27 25° 271° (W) 19:03:46 435.800 - 435.900 CW/SSB, 435.910 FM
KITSAT 1 25 Oct 18:54:32 19:00:14 20° 28° (NNE) 19:05:56 435.175 FM
SO-67 25 Oct 19:29:55 19:33:14 47° 261° (W) 19:36:35 435.3500 MHz FM
SO-50 25 Oct 19:46:44 19:49:19 14° 34° (NE) 19:51:54 436.795 FM
OPAL 25 Oct 19:57:07 19:59:51 15° 303° (WNW) 20:02:35 ?
HO-68 25 Oct 19:57:50 20:04:17 38° 62° (ENE) 20:10:46 435.675 MHz FM
STRAND 1 25 Oct 20:02:22 20:07:32 81° 286° (WNW) 20:12:40 ?
ISS 25 Oct 20:29:31 20:30:43 12° 230° (SW) 20:31:55 145.800 FM
UKube-1 25 Oct 20:30:18 20:32:58 16° 63° (ENE) 20:35:39 145.840 MHz, 145.915 MHz
